ZDPS 2B

Last updated on Wed Dec 27 2023 00:02:58 GMT+0000 (Coordinated Universal Time)

1 40902U 15049D 23360.34143275 .05240688 25196-5 19604-2 0 9990 2 40902 97.4178 23.7103 0003533 199.1496 160.9663 16.24457148459216
UTC large
Height (km)
Speed (km/s)
/
Latitude / Longitude
Inclination (degrees)
Orbital Period (minutes)
Azimuth
Elevation
Range (km)
Doppler Factor

Next 0 passes for location: London (51.5072 / 0.1276)

Sorry there are no passes over London.